Date String (YYYY-MM-DD hh:mm:ss) UTC,Instrument flags,Ambient pressure (hPa),Sample flow (lpm),Bypass flow (lpm),Sample temperature (°C),Ambient temperature (°C),ASC tube jacket temperature (°C),LED temperature (°C),Box temperature (°C),Sample RH (%),Span deviation,Mass concentration (μg/m³),Mass concentration (μg/m³),Mass concentration (μg/m³)
DateTimeUTC,F1_M11,P_M11,Q1_M11,Q2_M11,T1_M11,T2_M11,T3_M11,T4_M11,T5_M11,U1_M11,ZSPAN_M11,X0_M11,X2_M11,X1_M11
2022-03-21 11:00:00,,0821.8,4.99,0.00,24.9,23.9,00.0,34.2,26.6,16.3,0000.0,0011.28,0003.14,0001.61
2022-03-21 11:01:00,,0822.3,5.00,0.00,24.9,24.0,00.0,34.1,26.6,16.4,0000.0,0011.10,0003.08,0001.57
2022-03-21 11:02:00,,0821.8,4.99,0.00,24.9,23.9,00.0,34.1,26.6,16.5,0000.0,0011.17,0003.03,0001.52
2022-03-21 11:03:00,,0821.8,5.00,0.00,24.9,23.9,00.0,34.1,26.5,16.4,0000.0,0010.37,0002.90,0001.48
2022-03-21 11:04:00,,0821.8,5.01,0.00,24.8,23.8,00.0,34.1,26.5,16.3,0000.0,0009.61,0002.80,0001.42
2022-03-21 11:05:00,,0821.9,5.00,0.00,24.8,23.7,00.0,34.1,26.4,16.1,0000.0,0009.49,0002.70,0001.37
2022-03-21 11:06:00,,0821.8,5.00,0.00,24.7,23.7,00.0,34.0,26.4,16.0,0000.0,0011.08,0002.65,0001.33
2022-03-21 11:07:00,,0821.9,5.00,0.00,24.7,23.6,00.0,34.0,26.4,16.0,0000.0,0012.05,0002.61,0001.29
2022-03-21 11:08:00,,0821.9,4.99,0.00,24.7,23.6,00.0,34.0,26.3,16.0,0000.0,0012.40,0002.55,0001.26
2022-03-21 11:09:00,,0822.0,5.00,0.00,24.7,23.6,00.0,34.0,26.3,16.0,0000.0,0012.42,0002.46,0001.20
2022-03-21 11:10:00,,0822.1,4.99,0.00,24.6,23.5,00.0,33.9,26.2,16.0,0000.0,0012.16,0002.32,0001.15
2022-03-21 11:11:00,,0822.1,5.01,0.00,24.6,23.5,00.0,33.9,26.2,16.0,0000.0,0011.52,0002.26,0001.10
2022-03-21 11:12:00,,0822.1,5.00,0.00,24.5,23.4,00.0,33.9,26.1,16.1,0000.0,0011.71,0002.16,0001.06
2022-03-21 11:13:00,,0822.1,5.00,0.00,24.5,23.4,00.0,33.8,26.1,16.1,0000.0,0012.63,0002.12,0001.03
2022-03-21 11:14:00,,0822.2,4.99,0.00,24.5,23.4,00.0,33.8,26.1,16.1,0000.0,0012.94,0002.03,0000.98
2022-03-21 11:15:00,,0822.2,5.00,0.00,24.4,23.3,00.0,33.8,26.0,16.1,0000.0,0013.39,0001.99,0000.96
2022-03-21 11:16:00,,0822.3,5.00,0.00,24.4,23.4,00.0,33.7,26.0,16.1,0000.0,0013.21,0001.95,0000.96
2022-03-21 11:17:00,,0822.3,5.01,0.00,24.4,23.3,00.0,33.7,26.0,16.1,0000.0,0012.44,0001.88,0000.95
2022-03-21 11:18:00,,0822.4,5.00,0.00,24.4,23.3,00.0,33.7,26.0,16.1,0000.0,0011.86,0001.93,0000.93
2022-03-21 11:19:00,,0822.3,4.99,0.00,24.3,23.3,00.0,33.7,26.0,16.0,0000.0,0012.17,0001.99,0000.93
2022-03-21 11:20:00,,0822.3,4.99,0.00,24.3,23.3,00.0,33.6,26.0,15.9,0000.0,0011.68,0002.04,0000.94
2022-03-21 11:21:00,,0822.4,5.00,0.00,24.3,23.3,00.0,33.6,25.9,15.8,0000.0,0011.86,0002.10,0000.96
2022-03-21 11:22:00,,0822.4,5.01,0.00,24.3,23.3,00.0,33.6,25.9,15.7,0000.0,0011.66,0002.07,0000.96
2022-03-21 11:23:00,,0822.5,4.99,0.00,24.3,23.3,00.0,33.6,25.9,15.7,0000.0,0011.58,0002.10,0000.98
2022-03-21 11:24:00,,0822.5,5.00,0.00,24.3,23.3,00.0,33.5,25.9,15.7,0000.0,0010.58,0002.10,0000.98
2022-03-21 11:25:00,,0822.6,5.00,0.00,24.3,23.3,00.0,33.5,26.0,15.7,0000.0,0010.34,0002.13,0000.99
2022-03-21 11:26:00,,0822.5,5.00,0.00,24.3,23.3,00.0,33.5,26.0,15.7,0000.0,0010.16,0002.11,0000.99
2022-03-21 11:27:00,,0822.5,4.99,0.00,24.3,23.3,00.0,33.5,26.0,15.6,0000.0,0010.16,0002.08,0000.99
2022-03-21 11:28:00,,0822.7,5.00,0.00,24.3,23.3,00.0,33.5,26.0,15.5,0000.0,0009.46,0002.05,0000.99
2022-03-21 11:29:00,,0822.6,5.02,0.00,24.3,23.4,00.0,33.5,26.0,15.5,0000.0,0008.80,0002.06,0000.99
2022-03-21 11:30:00,,0822.6,4.99,0.00,24.3,23.4,00.0,33.5,25.9,15.5,0000.0,0008.44,0002.03,0001.00
2022-03-21 11:31:00,,0822.6,4.99,0.00,24.2,23.3,00.0,33.4,25.9,15.6,0000.0,0008.89,0002.01,0001.01
2022-03-21 11:32:00,,0822.6,5.01,0.00,24.2,23.3,00.0,33.4,25.9,15.7,0000.0,0008.58,0001.99,0001.00
2022-03-21 11:33:00,,0822.6,5.00,0.00,24.2,23.3,00.0,33.4,25.9,15.7,0000.0,0008.89,0002.00,0000.99
2022-03-21 11:34:00,,0822.7,5.00,0.00,24.2,23.3,00.0,33.4,25.9,15.7,0000.0,0009.08,0001.97,0000.99
2022-03-21 11:35:00,,0822.7,5.01,0.00,24.2,23.3,00.0,33.4,25.9,15.7,0000.0,0009.51,0001.94,0000.99
2022-03-21 11:36:00,,0822.7,4.99,0.00,24.2,23.2,00.0,33.4,25.9,15.7,0000.0,0010.38,0001.94,0000.99
2022-03-21 11:37:00,,0822.7,5.01,0.00,24.2,23.1,00.0,33.4,25.9,15.7,0000.0,0010.86,0001.95,0000.99
2022-03-21 11:38:00,,0822.7,5.00,0.00,24.2,23.1,00.0,33.3,25.9,15.7,0000.0,0011.14,0002.02,0001.01
2022-03-21 11:39:00,,0822.7,5.01,0.00,24.1,23.1,00.0,33.3,25.8,15.7,0000.0,0011.45,0002.08,0001.01
2022-03-21 11:40:00,,0822.7,5.01,0.00,24.2,23.1,00.0,33.3,25.9,15.7,0000.0,0011.87,0002.04,0001.02
2022-03-21 11:41:00,,0822.7,4.99,0.00,24.2,23.1,00.0,33.3,25.9,15.7,0000.0,0011.93,0002.00,0001.03
2022-03-21 11:42:00,,0822.7,4.99,0.00,24.2,23.1,00.0,33.3,25.9,15.7,0000.0,0011.63,0001.96,0001.02
2022-03-21 11:43:00,,0822.7,5.00,0.00,24.1,23.1,00.0,33.3,25.9,15.7,0000.0,0012.04,0002.05,0001.01
2022-03-21 11:44:00,,0822.7,5.00,0.00,24.2,23.1,00.0,33.3,25.9,15.8,0000.0,0012.54,0002.08,0001.02
2022-03-21 11:45:00,,0822.7,5.01,0.00,24.2,23.2,00.0,33.3,25.9,15.8,0000.0,0011.98,0002.09,0001.02
2022-03-21 11:46:00,,0822.7,5.00,0.00,24.2,23.3,00.0,33.3,25.9,15.7,0000.0,0011.36,0002.12,0001.02
2022-03-21 11:47:00,,0822.7,5.00,0.00,24.2,23.3,00.0,33.3,25.9,15.5,0000.0,0010.43,0002.10,0001.01
2022-03-21 11:48:00,,0822.7,5.01,0.00,24.2,23.3,00.0,33.3,25.9,15.3,0000.0,0009.68,0002.08,0001.00
2022-03-21 11:49:00,,0822.7,4.99,0.00,24.2,23.3,00.0,33.3,25.9,15.1,0000.0,0009.35,0002.07,0000.99
2022-03-21 11:50:00,,0822.7,5.00,0.00,24.2,23.3,00.0,33.2,25.9,15.0,0000.0,0009.26,0002.07,0001.00
2022-03-21 11:51:00,,0822.7,4.99,0.00,24.1,23.3,00.0,33.2,25.9,14.9,0000.0,0009.63,0002.11,0001.01
2022-03-21 11:52:00,,0822.7,5.00,0.00,24.1,23.3,00.0,33.2,25.9,14.8,0000.0,0010.27,0002.13,0000.99
2022-03-21 11:53:00,,0822.7,5.00,0.00,24.1,23.2,00.0,33.2,25.8,14.8,0000.0,0010.55,0002.19,0001.01
2022-03-21 11:54:00,,0822.7,5.00,0.00,24.1,23.2,00.0,33.2,25.8,14.8,0000.0,0011.16,0002.11,0001.01
2022-03-21 11:55:00,,0822.8,5.00,0.00,24.1,23.2,00.0,33.2,25.8,14.8,0000.0,0010.49,0002.07,0001.01
2022-03-21 11:56:00,,0822.8,5.02,0.00,24.1,23.3,00.0,33.2,25.8,14.8,0000.0,0010.31,0002.06,0000.99
2022-03-21 11:57:00,,0822.9,4.99,0.00,24.1,23.3,00.0,33.2,25.8,14.8,0000.0,0010.58,0002.09,0000.99
2022-03-21 11:58:00,,0823.0,5.00,0.00,24.1,23.3,00.0,33.2,25.9,14.9,0000.0,0011.69,0002.19,0000.99
2022-03-21 11:59:00,,0822.9,4.99,0.00,24.1,23.3,00.0,33.2,25.9,15.0,0000.0,0013.13,0002.22,0000.99
